Location: Longueuil
(45.5369°N, 73.5107°W)
Time: 23:30:32
(UTC-04:00)

ISS - Visible Passes

Search period start: 24 March 2019 00:00
Search period end: 03 April 2019 00:00
Orbit: 408 x 411 km, 51.6° (Epoch: 25 March)

Date Brightness Start Highest point End Pass type
(mag) Time Alt. Az. Time Alt. Az. Time Alt. Az.
24 Mar -3.3 20:43:27 10° WSW 20:46:43 57° NNW 20:48:14 27° NE visible
24 Mar -0.3 22:20:51 10° WNW 22:21:02 11° WNW 22:21:02 11° WNW visible
25 Mar -3.8 19:52:46 10° WSW 19:56:04 87° NW 19:59:23 10° ENE visible
25 Mar -2.0 21:30:00 10° WNW 21:32:44 30° NNW 21:32:44 30° NNW visible
26 Mar -2.4 20:39:07 10° W 20:42:12 36° NNW 20:44:20 17° NE visible
26 Mar -0.5 22:16:27 10° WNW 22:17:06 14° NW 22:17:06 14° NW visible
27 Mar -2.9 19:48:15 10° W 19:51:28 47° NNW 19:54:41 10° NE visible
27 Mar -2.0 21:25:40 10° WNW 21:28:33 27° N 21:28:37 27° N visible
28 Mar -2.1 20:34:48 10° WNW 20:37:44 28° N 20:40:02 14° NE visible
28 Mar -0.8 22:11:50 10° NW 22:12:48 17° NW 22:12:48 17° NW visible
29 Mar -2.3 19:43:54 10° WNW 19:46:55 32° NNW 19:49:58 10° NE visible
29 Mar -2.3 21:21:08 10° NW 21:24:06 29° N 21:24:11 29° N visible
30 Mar -2.1 20:30:22 10° WNW 20:33:16 27° N 20:35:32 14° ENE visible
30 Mar -1.1 22:07:03 10° NW 22:08:17 20° NW 22:08:17 20° NW visible
31 Mar -2.9 21:16:24 10° NW 21:19:33 39° NNE 21:19:36 39° NNE visible
01 Apr -2.4 20:25:42 10° NW 20:28:43 31° NNE 20:30:56 15° ENE visible
01 Apr -1.4 22:02:15 10° WNW 22:03:41 24° WNW 22:03:41 24° WNW visible
02 Apr -3.8 21:11:32 10° WNW 21:14:51 66° NNE 21:15:00 64° NE visible
